[[{"header":{"parameterUnit":"m.s-1","parameterCategory":1,"la1":30.2991,"la2":30.254,"lo1":-89.0895,"lo2":-89.0444,"dy":0.0017,"dx":0.0017,"nx":28,"ny":28,"refTime":"2025-01-19T09:00:00:Z","depth":0,"parameterNumber":2,"parameterNumberName":"U-component_of_WINDS"},"data":[0,0,0,0,0,0,0,0,0,0,0,0,0,0,0,0,0,0,0,0,0,0,0,0,0,0,0,0,0,0,0,0,0,0,0,0,0,0,0,0,0,0,0,0,0,0,0,0,0,0,0,0,0,0,0,0,0,0,4.065,4.0651,0,4.0701,4.0702,4.0702,4.0664,4.0663,4.0661,4.066,4.071,4.0713,4.0715,0,0,0,0,0,0,0,0,0,0,0,0,0,4.052,4.0523,4.065,4.0651,4.0651,4.0701,4.0702,4.0702,4.0665,4.0663,4.0661,4.0659,4.0709,4.0712,4.0716,0,0,0,0,0,0,0,0,0,0,0,0,0,4.0575,4.0524,4.065,4.0639,4.0638,4.0701,4.0702,4.0702,4.0665,4.0663,4.066,4.0658,4.0708,4.0712,4.0716,4.0792,0,0,4.0729,4.0731,0,0,0,0,0,0,0,0,4.0572,4.0579,4.064,4.0639,4.0639,4.0674,4.0674,4.0732,4.0666,4.0655,4.066,4.0657,4.07,4.0705,4.0719,4.0795,4.0797,4.073,4.0732,4.0734,4.0735,0,0,0,0,0,0,0,4.0568,4.0577,4.067,4.0641,4.064,4.0631,4.0636,4.0685,4.069,4.0656,4.0653,4.066,4.0699,4.0715,4.072,4.0797,4.073,4.0733,4.0736,4.0738,4.094,4.0943,0,0,0,0,0,0,4.0565,4.0574,4.0668,4.0672,4.0599,4.0635,4.0641,4.0665,4.069,4.0691,4.0662,4.0658,4.0709,4.0715,4.0722,4.0814,4.0734,4.0738,4.0741,4.0938,4.0941,4.0944,0,0,0,0,0,0,4.0563,4.0574,4.0666,4.0622,4.0633,4.064,4.0668,4.0667,4.0684,4.0694,4.0695,4.0677,4.0708,4.0716,4.0776,4.0815,4.074,4.0744,4.0934,4.0939,4.0943,4.0999,0,0,0,0,0,0,4.0559,4.0573,4.0602,4.0623,4.0636,4.0719,4.067,4.067,4.0691,4.0687,4.0709,4.0711,4.0706,4.077,4.078,4.082,4.0747,4.0931,4.0936,4.0941,4.0993,4.1004,4.1014,0,0,0,0,0,4.0555,4.0615,4.0604,4.0615,4.0672,4.0722,4.0729,4.0723,4.0695,4.0724,4.0731,4.071,4.081,4.0776,4.0788,4.0829,4.0928,4.0935,4.0941,4.0989,4.1002,4.1013,0,0,0,0,0,0,4.0596,4.0617,4.0605,4.0674,4.0697,4.0715,4.0752,4.0737,4.0768,4.0762,4.0753,4.0758,4.0822,4.0831,4.0794,4.0906,4.0864,4.0873,4.0897,4.091,4.092,4.0916,4.0751,0,0,0,0,0,4.0614,4.0653,4.0669,4.0728,4.074,4.0744,4.0766,4.076,4.0782,4.0792,4.0803,4.0826,4.0863,4.0887,4.0921,4.0995,4.1,4.103,4.104,4.1048,4.1056,4.1098,4.1112,4.0965,4.0965,4.0965,0,0,4.0649,4.0666,4.0691,4.0737,4.0754,4.0795,4.0752,4.0797,4.0827,4.0798,4.0856,4.0866,4.089,4.0959,4.0989,4.0969,4.1098,4.1056,4.1063,4.1066,4.1106,4.112,4.1132,4.0969,4.0968,4.0968,0,0,4.0736,4.0752,4.0804,4.0823,4.085,4.0852,4.0865,4.0887,4.0893,4.0951,4.0931,4.0967,4.103,4.1049,4.1067,4.1165,4.1147,4.1177,4.123,4.1271,4.1283,4.1293,4.1329,4.1342,4.1184,4.1185,4.1185,0,4.0777,4.0838,4.0832,4.088,4.0901,4.0879,4.0932,4.095,4.0986,4.1002,4.0979,4.1059,4.1074,4.1148,4.1172,4.1187,4.1202,4.1174,4.1281,4.1292,4.1301,4.1336,4.1349,4.1188,4.1188,4.1187,4.1187,0,4.0888,4.0931,4.097,4.1008,4.1034,4.1084,4.1086,4.1113,4.1106,4.1112,4.1173,4.119,4.1229,4.1246,4.1238,4.1319,4.1306,4.1283,4.1241,4.1319,4.1351,4.1364,4.1193,4.1192,4.1191,4.119,0,0,4.1,4.1036,4.1051,4.1069,4.1098,4.1132,4.1181,4.122,4.1245,4.1271,4.1313,4.1369,4.1348,4.1369,4.1364,4.14,4.1479,4.1372,4.1373,4.1392,4.1571,4.1589,4.1604,4.1468,4.147,4.1472,4.157,0,4.1089,4.1177,4.1174,4.1256,4.1297,4.1277,4.1321,4.1344,4.1352,4.1387,4.1395,4.1435,4.1404,4.1417,4.1452,4.1462,4.1515,4.1455,4.1507,4.1509,4.1502,4.1621,4.1639,4.1731,4.1582,4.1584,4.1586,0,4.1204,4.1237,4.1323,4.1349,4.1366,4.1405,4.1442,4.1477,4.1503,4.1506,4.1532,4.1521,4.1573,4.1531,4.1602,4.1562,4.1583,4.1592,4.1595,4.16,4.1552,4.163,4.1759,4.1773,4.1605,4.1604,4.1602,0,4.1279,4.1344,4.1405,4.142,4.1452,4.1481,4.1495,4.152,4.1544,4.1577,4.1593,4.163,4.1651,4.1681,4.1682,4.1651,4.1755,4.1712,4.176,4.176,4.1782,4.178,4.1917,4.1795,4.1795,4.1795,4.1795,0,4.1378,4.1432,4.1439,4.1476,4.1537,4.1534,4.1594,4.1606,4.1628,4.1668,4.1653,4.1691,4.169,4.1728,4.1729,4.179,4.1799,4.1803,4.1803,4.1805,4.1804,4.1818,4.1812,4.1799,4.1798,4.1797,4.1796,0,4.1471,4.1478,4.1543,4.1569,4.1577,4.1621,4.1643,4.1679,4.1686,4.1737,4.1748,4.176,4.1805,4.1809,4.186,4.1861,4.1935,4.1927,4.1926,4.1925,4.1972,4.1968,4.2123,4.2144,4.2008,4.2009,4.2011,0,4.1535,4.1576,4.1607,4.1633,4.165,4.1692,4.1718,4.1718,4.1745,4.1781,4.1813,4.1857,4.1892,4.1965,4.1978,4.2018,4.2012,4.2063,4.2017,4.2019,4.2014,4.2011,4.2016,4.2072,4.2074,4.2075,4.2076,0,4.1647,4.1649,4.1687,4.1727,4.1759,4.179,4.1819,4.1842,4.1846,4.1878,4.1924,4.1952,4.2006,4.205,4.209,4.2105,4.2092,4.2091,4.2104,4.2106,4.2104,4.2107,4.1951,4.2087,4.2086,4.2085,4.2084,4.2084,4.1727,4.1764,4.1793,4.1836,4.1859,4.1888,4.1924,4.1937,4.1976,4.202,4.2018,4.207,4.2098,4.2151,4.217,4.2211,4.2193,4.2212,4.2217,4.2222,4.2227,4.2098,4.2218,4.2217,4.2217,4.2217,4.2217,0,4.184,4.1858,4.1898,4.1941,4.1976,4.1962,4.1994,4.2024,4.207,4.2098,4.2134,4.2189,4.2233,4.225,4.2293,4.2323,4.2318,4.2334,4.2332,4.2336,4.224,4.2224,4.2337,4.2337,4.2337,4.2337,4.2337,4.2337,4.1902,4.1964,4.197,4.2044,4.2062,4.2114,4.2134,4.2161,4.2183,4.2246,4.2282,4.2294,4.2318,4.2363,4.2403,4.2408,4.2424,4.2444,4.2445,4.2355,4.2342,4.2331,4.2316,4.2447,4.2447,4.2538,4.2539,4.254]},{"header":{"parameterUnit":"m.s-1","parameterCategory":1,"la1":30.2991,"la2":30.254,"lo1":-89.0895,"lo2":-89.0444,"dy":0.0017,"dx":0.0017,"nx":28,"ny":28,"refTime":"2025-01-19T09:00:00:Z","depth":0,"parameterNumber":3,"parameterNumberName":"V-component_of_WINDS"},"data":[0,0,0,0,0,0,0,0,0,0,0,0,0,0,0,0,0,0,0,0,0,0,0,0,0,0,0,0,0,0,0,0,0,0,0,0,0,0,0,0,0,0,0,0,0,0,0,0,0,0,0,0,0,0,0,0,0,0,-8.5074,-8.5076,0,-8.5222,-8.5224,-8.5225,-8.5174,-8.517,-8.5167,-8.5164,-8.5309,-8.5315,-8.5322,0,0,0,0,0,0,0,0,0,0,0,0,0,-8.4743,-8.4749,-8.5074,-8.5076,-8.5078,-8.5222,-8.5224,-8.5226,-8.5174,-8.517,-8.5166,-8.5163,-8.5306,-8.5314,-8.5323,0,0,0,0,0,0,0,0,0,0,0,0,0,-8.4888,-8.4751,-8.5074,-8.507,-8.5071,-8.5221,-8.5224,-8.5226,-8.5175,-8.517,-8.5165,-8.5161,-8.5304,-8.5314,-8.5324,-8.5485,0,0,-8.5355,-8.536,0,0,0,0,0,0,0,0,-8.488,-8.49,-8.5068,-8.507,-8.5072,-8.5175,-8.516,-8.5313,-8.5176,-8.5135,-8.5164,-8.5158,-8.5267,-8.528,-8.5319,-8.5492,-8.5498,-8.5356,-8.5363,-8.5367,-8.537,0,0,0,0,0,0,0,-8.487,-8.4894,-8.5132,-8.5071,-8.5073,-8.5059,-8.5074,-8.5189,-8.5227,-8.5138,-8.5135,-8.5154,-8.5267,-8.5309,-8.5322,-8.55,-8.5356,-8.5365,-8.5372,-8.5376,-8.5816,-8.5821,0,0,0,0,0,0,-8.486,-8.4885,-8.5128,-8.5137,-8.4962,-8.5069,-8.5086,-8.5146,-8.5225,-8.5233,-8.5158,-8.5151,-8.5294,-8.531,-8.5327,-8.5523,-8.5367,-8.5377,-8.5382,-8.581,-8.5817,-8.5823,0,0,0,0,0,0,-8.4853,-8.4882,-8.5122,-8.5011,-8.504,-8.508,-8.5148,-8.5152,-8.5193,-8.524,-8.5246,-8.5194,-8.529,-8.5312,-8.5447,-8.5527,-8.5381,-8.5391,-8.5804,-8.5812,-8.582,-8.5915,0,0,0,0,0,0,-8.4843,-8.488,-8.4942,-8.5012,-8.5046,-8.5242,-8.5153,-8.5158,-8.5212,-8.5204,-8.5275,-8.5282,-8.5288,-8.5432,-8.5458,-8.5538,-8.5399,-8.5797,-8.5808,-8.5817,-8.5905,-8.5925,-8.5943,0,0,0,0,0,-8.4832,-8.4961,-8.4946,-8.4975,-8.5126,-8.5246,-8.5266,-8.5272,-8.5219,-8.5282,-8.5312,-8.528,-8.5514,-8.5446,-8.5475,-8.556,-8.5792,-8.5805,-8.5817,-8.5896,-8.5921,-8.5943,0,0,0,0,0,0,-8.4896,-8.497,-8.4954,-8.511,-8.5173,-8.5238,-8.5317,-8.5298,-8.5375,-8.5364,-8.5367,-8.5383,-8.5523,-8.5554,-8.5478,-8.5721,-8.5645,-8.5663,-8.5696,-8.572,-8.5739,-8.5728,-8.5407,0,0,0,0,0,-8.4929,-8.5023,-8.5081,-8.5214,-8.5246,-8.5277,-8.5329,-8.5329,-8.5393,-8.5419,-8.5459,-8.552,-8.5608,-8.5665,-8.5748,-8.5909,-8.5924,-8.5982,-8.6001,-8.6016,-8.6032,-8.6121,-8.6148,-8.5864,-8.5863,-8.5863,0,0,-8.4997,-8.5049,-8.5107,-8.5228,-8.5277,-8.5373,-8.5299,-8.5403,-8.5474,-8.5434,-8.5565,-8.5597,-8.5666,-8.5815,-8.5883,-8.5846,-8.6114,-8.6032,-8.6044,-8.6052,-8.6137,-8.6163,-8.6187,-8.5872,-8.587,-8.5869,0,0,-8.517,-8.5219,-8.5336,-8.5387,-8.5463,-8.5482,-8.5511,-8.5579,-8.56,-8.5732,-8.5705,-8.5788,-8.5939,-8.599,-8.6035,-8.6231,-8.6205,-8.6258,-8.6358,-8.6444,-8.6467,-8.6487,-8.6558,-8.6583,-8.6274,-8.6274,-8.6274,0,-8.5245,-8.539,-8.5397,-8.5505,-8.5559,-8.5531,-8.5649,-8.5697,-8.5795,-8.5832,-8.579,-8.598,-8.6024,-8.6186,-8.6235,-8.6272,-8.6304,-8.625,-8.6463,-8.6483,-8.6502,-8.657,-8.6596,-8.628,-8.6279,-8.6279,-8.6278,0,-8.5479,-8.558,-8.5665,-8.5764,-8.5828,-8.594,-8.5963,-8.6026,-8.6021,-8.6045,-8.6181,-8.6233,-8.6328,-8.6366,-8.636,-8.6528,-8.6503,-8.6462,-8.6385,-8.6535,-8.6599,-8.6625,-8.6289,-8.6287,-8.6285,-8.6283,0,0,-8.5695,-8.58,-8.5831,-8.5876,-8.5959,-8.6037,-8.6148,-8.6243,-8.6298,-8.6366,-8.6459,-8.6589,-8.6553,-8.6605,-8.6605,-8.6681,-8.6835,-8.6631,-8.6633,-8.6668,-8.7024,-8.7055,-8.7085,-8.6818,-8.6823,-8.6827,-8.7018,0,-8.5876,-8.6074,-8.6085,-8.6264,-8.6358,-8.6334,-8.643,-8.6491,-8.6517,-8.6599,-8.6626,-8.6719,-8.6664,-8.6695,-8.6769,-8.6801,-8.6906,-8.6787,-8.6904,-8.6908,-8.6888,-8.7118,-8.715,-8.7328,-8.7043,-8.7047,-8.7051,0,-8.6114,-8.6194,-8.6384,-8.6456,-8.6495,-8.6582,-8.6672,-8.6751,-8.6819,-8.6833,-8.6893,-8.6883,-8.6995,-8.6915,-8.7071,-8.6989,-8.7038,-8.706,-8.7067,-8.7079,-8.6989,-8.7136,-8.7385,-8.7412,-8.709,-8.7086,-8.7084,0,-8.6255,-8.6409,-8.6544,-8.6583,-8.667,-8.6732,-8.6771,-8.6835,-8.6892,-8.6969,-8.7006,-8.7094,-8.7143,-8.7211,-8.7225,-8.7165,-8.7381,-8.7301,-8.7395,-8.7395,-8.7441,-8.7438,-8.7703,-8.7471,-8.7471,-8.7471,-8.747,0,-8.6456,-8.6573,-8.6609,-8.6691,-8.6822,-8.6833,-8.6961,-8.6995,-8.7053,-8.7141,-8.7123,-8.7205,-8.7219,-8.7304,-8.7315,-8.7443,-8.7464,-8.7477,-8.7479,-8.748,-8.7478,-8.7512,-8.75,-8.7478,-8.7476,-8.7475,-8.7473,0,-8.6635,-8.6664,-8.6809,-8.6881,-8.6901,-8.6995,-8.7055,-8.7134,-8.7158,-8.727,-8.7297,-8.7335,-8.7434,-8.7455,-8.7572,-8.758,-8.7732,-8.7721,-8.771,-8.7709,-8.7802,-8.7794,-8.8098,-8.8138,-8.788,-8.7882,-8.7884,0,-8.6763,-8.6853,-8.6936,-8.6995,-8.7038,-8.7132,-8.7192,-8.7206,-8.7268,-8.7355,-8.7423,-8.7522,-8.7601,-8.7761,-8.7798,-8.7888,-8.7879,-8.798,-8.7892,-8.7891,-8.7882,-8.7877,-8.7886,-8.7996,-8.7999,-8.8001,-8.8003,0,-8.6986,-8.6996,-8.7084,-8.7178,-8.7251,-8.7324,-8.7394,-8.7443,-8.7467,-8.7538,-8.7641,-8.7703,-8.7825,-8.7923,-8.8013,-8.8051,-8.8032,-8.8031,-8.8057,-8.8059,-8.805,-8.8057,-8.7757,-8.8023,-8.8021,-8.802,-8.8019,-8.8018,-8.7144,-8.7224,-8.7296,-8.7395,-8.745,-8.7516,-8.7595,-8.7631,-8.7719,-8.7821,-8.7823,-8.7936,-8.8003,-8.8123,-8.8167,-8.8255,-8.8223,-8.8261,-8.8271,-8.828,-8.829,-8.8036,-8.8271,-8.827,-8.827,-8.8269,-8.8269,0,-8.7367,-8.7413,-8.7504,-8.7605,-8.7683,-8.7661,-8.7738,-8.7804,-8.7905,-8.797,-8.805,-8.817,-8.8265,-8.8311,-8.8405,-8.8467,-8.846,-8.8491,-8.8487,-8.8496,-8.8312,-8.828,-8.8495,-8.8495,-8.8495,-8.8495,-8.8495,-8.8495,-8.7493,-8.7628,-8.7647,-8.7809,-8.7853,-8.7967,-8.8013,-8.8074,-8.8127,-8.8263,-8.8343,-8.8373,-8.8431,-8.853,-8.8616,-8.8627,-8.8663,-8.8698,-8.8705,-8.8532,-8.8509,-8.8487,-8.8457,-8.8706,-8.8706,-8.8882,-8.8884,-8.8885]}]]